Weather History for EINN - September, 2012

Change the Weather History Date:

Sunday, September 9, 2012

  Actual Average Record
Temperature  
Mean Temperature 61 °F -  
Max Temperature 67 °F 62 °F 75 °F (2004)
Min Temperature 55 °F 49 °F 43 °F (2014)
Degree Days  
Heating Degree Days 4    
Growing Degree Days 11 (Base 50)    
Moisture  
Dew Point 57 °F    
Average Humidity 88    
Maximum Humidity 100    
Minimum Humidity 73    
Precipitation  
Precipitation 0.04 in 0.11 in - ()
Sea Level Pressure  
Sea Level Pressure 29.64 in    
Wind  
Wind Speed 11 mph ()    
Max Wind Speed 18 mph    
Max Gust Speed -    
Visibility 6.4 miles    
Events Rain    
Averages and records for this station are not official NWS values.
T = Trace of Precipitation, MM = Missing Value Source: Averaged Metar Reports

Daily Weather History Graph

Daily Weather History Graph

Search for Another Location

Airport or City:

Trip Planner

Search our weather history database for the weather conditions in past years. The results will help you decide how hot, cold, wet, or windy it might be!

Date:

Astronomy

Sep. 09, 2012 Rise Set
Actual Time 7:00 AM IST 8:04 PM IST
Civil Twilight 6:25 AM IST 8:39 PM IST
Nautical Twilight 5:42 AM IST 9:21 PM IST
Astronomical Twilight 4:56 AM IST 10:07 PM IST
Moon No Moon Rise 4:15 PM IST (9/9)
Length of Visible Light 14h 14m
Length of Day
13h 04m
Last Quarter, 41% of the Moon is Illuminated
Sep 9
Last Quarter
Sep 16
New
Sep 22
First Quarter
Sep 30
Full
Oct 8
Last Quarter

Hourly Weather History & Observations

Time (IST) Temp. Dew Point Humidity Pressure Visibility Wind Dir Wind Speed Gust Speed Precip Events Conditions
12:00 AM 57.2 °F 51.8 °F 82% 29.83 in 6.2 mi SE 13.8 mph - N/A   Scattered Clouds
12:30 AM 57.2 °F 53.6 °F 88% 29.83 in 6.2 mi SE 10.4 mph - N/A   Mostly Cloudy
1:00 AM 56 °F 53 °F 84% 29.83 in 12 mi ESE 6.7 mph - -   Partly Cloudy
1:00 AM 55.4 °F 51.8 °F 88% 29.83 in 6.2 mi ESE 6.9 mph - N/A   Mostly Cloudy
1:30 AM 55.4 °F 53.6 °F 94% 29.80 in 6.2 mi SE 6.9 mph - N/A   Mostly Cloudy
2:00 AM 57.2 °F 53.6 °F 88% 29.80 in 6.2 mi SSE 8.1 mph - N/A   Mostly Cloudy
2:30 AM 57.2 °F 53.6 °F 88% 29.77 in 6.2 mi SE 6.9 mph - N/A   Mostly Cloudy
3:00 AM 57.2 °F 53.6 °F 88% 29.74 in 6.2 mi SE 8.1 mph - N/A   Mostly Cloudy
3:30 AM 57.2 °F 55.4 °F 94% 29.74 in 6.2 mi SE 11.5 mph - N/A   Mostly Cloudy
4:00 AM 57.2 °F 55.4 °F 94% 29.71 in 6.2 mi SE 11.5 mph - N/A   Mostly Cloudy
4:30 AM 59.0 °F 55.4 °F 88% 29.71 in 6.2 mi SE 11.5 mph - N/A   Mostly Cloudy
5:00 AM 59.0 °F 55.4 °F 88% 29.68 in 6.2 mi SE 13.8 mph - N/A   Mostly Cloudy
5:30 AM 59.0 °F 55.4 °F 88% 29.68 in 6.2 mi SE 15.0 mph - N/A   Mostly Cloudy
6:00 AM 59.0 °F 55.4 °F 88% 29.65 in 6.2 mi SE 13.8 mph - N/A   Mostly Cloudy
6:30 AM 59.0 °F 57.2 °F 94% 29.65 in 6.2 mi SE 12.7 mph - N/A   Light Drizzle
7:00 AM 59 °F 57 °F 92% 29.65 in 7 mi SE 13.4 mph - - Rain Light Drizzle
7:00 AM 59.0 °F 57.2 °F 94% 29.62 in 6.2 mi SE 12.7 mph - N/A   Mostly Cloudy
7:30 AM 60.8 °F 57.2 °F 88% 29.62 in 6.2 mi SE 10.4 mph - N/A   Mostly Cloudy
8:00 AM 60.8 °F 57.2 °F 88% 29.62 in 6.2 mi SE 12.7 mph - N/A   Mostly Cloudy
8:30 AM 60.8 °F 57.2 °F 88% 29.62 in 6.2 mi SE 9.2 mph - N/A   Mostly Cloudy
9:00 AM 62.6 °F 57.2 °F 82% 29.62 in 6.2 mi SSE 13.8 mph - N/A   Mostly Cloudy
9:30 AM 62.6 °F 59.0 °F 88% 29.62 in 6.2 mi SSE 15.0 mph - N/A   Mostly Cloudy
10:00 AM 62.6 °F 59.0 °F 88% 29.59 in 6.2 mi South 17.3 mph - N/A   Mostly Cloudy
10:30 AM 64.4 °F 59.0 °F 83% 29.59 in 6.2 mi South 18.4 mph - N/A   Mostly Cloudy
11:00 AM 66.2 °F 60.8 °F 83% 29.59 in 6.2 mi South 16.1 mph - N/A   Mostly Cloudy
11:30 AM 66.2 °F 60.8 °F 83% 29.59 in 6.2 mi South 17.3 mph - N/A   Mostly Cloudy
12:00 PM 66.2 °F 57.2 °F 73% 29.59 in 6.2 mi SW 17.3 mph - N/A   Mostly Cloudy
12:30 PM 66.2 °F 57.2 °F 73% 29.56 in 6.2 mi SSW 12.7 mph - N/A   Mostly Cloudy
1:00 PM 65 °F 58 °F 73% 29.59 in 22 mi SSW 13.4 mph - - Rain Light Rain Showers
1:00 PM 64.4 °F 59.0 °F 83% 29.56 in 6.2 mi SSW 12.7 mph - N/A   Mostly Cloudy
1:30 PM 64.4 °F 57.2 °F 77% 29.56 in 6.2 mi SSW 13.8 mph - N/A Rain Light Rain Showers
2:00 PM 66.2 °F 59.0 °F 78% 29.56 in 6.2 mi SSW 12.7 mph - N/A   Mostly Cloudy
2:30 PM 64.4 °F 59.0 °F 83% 29.56 in 6.2 mi SSW 15.0 mph - N/A   Mostly Cloudy
3:00 PM 66.2 °F 59.0 °F 78% 29.56 in 6.2 mi SSW 12.7 mph - N/A   Mostly Cloudy
3:30 PM 64.4 °F 60.8 °F 88% 29.56 in 6.2 mi SW 11.5 mph - N/A   Mostly Cloudy
4:00 PM 64.4 °F 60.8 °F 88% 29.56 in 6.2 mi SW 12.7 mph - N/A   Mostly Cloudy
4:30 PM 66.2 °F 60.8 °F 83% 29.56 in 6.2 mi SSW 10.4 mph - N/A   Mostly Cloudy
5:00 PM 64.4 °F 60.8 °F 88% 29.56 in - SW 11.5 mph - N/A Rain Light Rain Showers
5:30 PM 62.6 °F 60.8 °F 94% 29.56 in 6.2 mi SW 11.5 mph - N/A   Mostly Cloudy
6:00 PM 60.8 °F 59.0 °F 94% 29.56 in 6.2 mi WSW 13.8 mph - N/A   Scattered Clouds
6:30 PM 62.6 °F 59.0 °F 88% 29.56 in 6.2 mi WSW 12.7 mph - N/A   Mostly Cloudy
7:00 PM 63 °F 59 °F 83% 29.58 in 16 mi West 13.4 mph - -   Partly Cloudy
7:00 PM 62.6 °F 59.0 °F 88% 29.56 in 6.2 mi West 12.7 mph - N/A   Mostly Cloudy
7:30 PM 60.8 °F 59.0 °F 94% 29.56 in 6.2 mi West 16.1 mph - N/A   Mostly Cloudy
8:00 PM 60.8 °F 59.0 °F 94% 29.59 in 6.2 mi WSW 13.8 mph - N/A   Mostly Cloudy
8:30 PM 60.8 °F 59.0 °F 94% 29.59 in 6.2 mi WSW 11.5 mph - N/A Rain Light Rain Showers
9:00 PM 60.8 °F 59.0 °F 94% 29.59 in 6.2 mi WSW 12.7 mph - N/A   Mostly Cloudy
9:30 PM 60.8 °F 59.0 °F 94% 29.62 in 6.2 mi WSW 13.8 mph - N/A   Mostly Cloudy
10:00 PM 59.0 °F 59.0 °F 100% 29.62 in 2.2 mi WSW 12.7 mph - N/A   Light Drizzle
10:30 PM 59.0 °F 59.0 °F 100% 29.62 in 3.1 mi West 11.5 mph - N/A   Light Drizzle
11:00 PM 59.0 °F 57.2 °F 94% 29.65 in 6.2 mi WSW 11.5 mph - N/A   Mostly Cloudy
11:30 PM 59.0 °F 57.2 °F 94% 29.62 in 6.2 mi SW 9.2 mph - N/A   Mostly Cloudy